| time (UTC) | temp F | wind direction | speed MPH | gust MPH | rain 1hr in | rain 24hr in | rain mn in | humidity % | barometer mb |
| 20260506112541 | 38 | 94 | 3.0 | 6.0 | 0.00 | 0.00 | 0.00 | 68 | 1011.8 |
| 20260506111522 | 38 | 94 | 3.0 | 6.0 | 0.00 | 0.00 | 0.00 | 68 | 1011.5 |
| 20260506110450 | 38 | 94 | 2.0 | 6.0 | 0.00 | 0.00 | 0.00 | 70 | 1011.2 |
| 20260506105425 | 38 | 94 | 3.0 | 6.0 | 0.00 | 0.00 | 0.00 | 71 | 1011.2 |
| 20260506104353 | 38 | 94 | 3.0 | 6.0 | 0.00 | 0.00 | 0.00 | 72 | 1011.1 |
| 20260506103330 | 38 | 94 | 4.0 | 9.0 | 0.00 | 0.00 | 0.00 | 73 | 1011.0 |
| 20260506102310 | 38 | 94 | 4.0 | 9.0 | 0.00 | 0.00 | 0.00 | 73 | 1010.9 |
| 20260506101243 | 39 | 94 | 5.0 | 9.0 | 0.00 | 0.00 | 0.00 | 73 | 1011.1 |
| 20260506100229 | 39 | 95 | 5.0 | 9.0 | 0.00 | 0.00 | 0.00 | 74 | 1011.0 |
| 20260506095200 | 39 | 94 | 4.0 | 10.0 | 0.00 | 0.00 | 0.00 | 74 | 1011.0 |
| 20260506094145 | 39 | 94 | 5.0 | 10.0 | 0.00 | 0.00 | 0.00 | 74 | 1011.0 |
| 20260506092050 | 39 | 94 | 6.0 | 10.0 | 0.00 | 0.00 | 0.00 | 75 | 1011.1 |
| 20260506091108 | 39 | 91 | 6.0 | 11.0 | 0.00 | 0.00 | 0.00 | 75 | 1011.1 |
| 20260506090106 | 39 | 93 | 6.0 | 11.0 | 0.00 | 0.00 | 0.00 | 74 | 1011.2 |
| 20260506084020 | 40 | 96 | 6.0 | 11.0 | 0.00 | 0.00 | 0.00 | 73 | 1011.1 |
| 20260506083036 | 40 | 93 | 6.0 | 11.0 | 0.00 | 0.00 | 0.00 | 73 | 1011.1 |
| 20260506082100 | 40 | 96 | 6.0 | 11.0 | 0.00 | 0.00 | 0.00 | 74 | 1010.9 |
| 20260506071658 | 40 | 87 | 1.0 | 3.0 | 0.00 | 0.00 | 0.00 | 79 | 1010.4 |
| 20260506070632 | 40 | 87 | 1.0 | 2.0 | 0.00 | 0.03 | 0.00 | 80 | 1010.6 |
| 20260506062444 | 40 | 87 | 0.0 | 0.0 | 0.00 | 0.07 | 0.00 | 80 | 1010.6 |
| 20260506061430 | 40 | 87 | 0.0 | 0.0 | 0.00 | 0.07 | 0.00 | 79 | 1010.7 |
| 20260506060448 | 40 | 87 | 0.0 | 1.0 | 0.00 | 0.07 | 0.00 | 79 | 1010.5 |
| 20260506050509 | 39 | 87 | 0.0 | 0.0 | 0.00 | 0.29 | 0.00 | 76 | 1011.0 |
| 20260506043403 | 39 | 87 | 0.0 | 0.0 | 0.00 | 0.29 | 0.00 | 74 | 1010.9 |
| 20260506040101 | 39 | 87 | 0.0 | 0.0 | 0.00 | 0.29 | 0.00 | 74 | 1010.6 |
| 20260506035033 | 40 | 87 | 0.0 | 0.0 | 0.00 | 0.29 | 0.29 | 74 | 1010.7 |
| 20260506034050 | 40 | 87 | 0.0 | 0.0 | 0.00 | 0.29 | 0.29 | 75 | 1010.6 |
| 20260506033026 | 40 | 87 | 0.0 | 1.0 | 0.00 | 0.29 | 0.29 | 75 | 1010.7 |
| 20260506032026 | 40 | 87 | 0.0 | 1.0 | 0.00 | 0.29 | 0.29 | 74 | 1010.6 |
| 20260506025907 | 40 | 87 | 0.0 | 3.0 | 0.00 | 0.29 | 0.29 | 75 | 1010.5 |
| 20260506024926 | 40 | 87 | 0.0 | 2.0 | 0.00 | 0.29 | 0.29 | 76 | 1010.4 |
| 20260506023921 | 40 | 87 | 0.0 | 2.0 | 0.00 | 0.29 | 0.29 | 77 | 1010.5 |
| 20260506022900 | 40 | 87 | 0.0 | 2.0 | 0.00 | 0.29 | 0.29 | 75 | 1010.4 |
| 20260506021917 | 40 | 87 | 0.0 | 2.0 | 0.00 | 0.29 | 0.29 | 74 | 1010.5 |
| 20260506020911 | 40 | 87 | 0.0 | 1.0 | 0.00 | 0.29 | 0.29 | 73 | 1010.6 |
| 20260506015921 | 40 | 87 | 0.0 | 0.0 | 0.00 | 0.29 | 0.29 | 72 | 1010.8 |
| 20260506014849 | 40 | 87 | 0.0 | 0.0 | 0.00 | 0.29 | 0.29 | 72 | 1010.6 |
| 20260506013839 | 40 | 87 | 0.0 | 0.0 | 0.00 | 0.29 | 0.29 | 71 | 1010.4 |
| 20260506012903 | 40 | 87 | 0.0 | 1.0 | 0.00 | 0.29 | 0.29 | 72 | 1010.5 |
| 20260506011859 | 41 | 87 | 0.0 | 1.0 | 0.00 | 0.29 | 0.29 | 71 | 1010.2 |
| 20260506005804 | 41 | 87 | 0.0 | 1.0 | 0.00 | 0.29 | 0.29 | 70 | 1009.7 |
| 20260506004825 | 42 | 87 | 0.0 | 0.0 | 0.00 | 0.29 | 0.29 | 69 | 1009.7 |
| 20260506002703 | 42 | 87 | 1.0 | 2.0 | 0.00 | 0.29 | 0.29 | 67 | 1009.5 |
| 20260506000539 | 43 | 87 | 2.0 | 4.0 | 0.00 | 0.29 | 0.29 | 68 | 1009.2 |
| 20260505234408 | 45 | 87 | 2.0 | 4.0 | 0.00 | 0.29 | 0.29 | 64 | 1009.2 |
| 20260505233417 | 45 | 87 | 2.0 | 5.0 | 0.00 | 0.29 | 0.29 | 64 | 1009.1 |
| 20260505232345 | 45 | 87 | 3.0 | 8.0 | 0.00 | 0.29 | 0.29 | 62 | 1009.1 |
| 20260505231349 | 45 | 88 | 4.0 | 9.0 | 0.00 | 0.29 | 0.29 | 60 | 1009.0 |
| 20260505230342 | 45 | 87 | 4.0 | 9.0 | 0.00 | 0.29 | 0.29 | 60 | 1009.0 |
| 20260505225353 | 45 | 78 | 5.0 | 11.0 | 0.00 | 0.29 | 0.29 | 62 | 1009.1 |
| 20260505224344 | 45 | 94 | 5.0 | 11.0 | 0.00 | 0.29 | 0.29 | 61 | 1009.0 |
| 20260505223334 | 45 | 94 | 5.0 | 10.0 | 0.00 | 0.29 | 0.29 | 63 | 1009.0 |
| 20260505222351 | 46 | 92 | 5.0 | 9.0 | 0.00 | 0.29 | 0.29 | 61 | 1009.2 |
| 20260505221350 | 47 | 97 | 4.0 | 7.0 | 0.00 | 0.29 | 0.29 | 61 | 1009.2 |
| 20260505220352 | 50 | 98 | 4.0 | 6.0 | 0.00 | 0.29 | 0.29 | 56 | 1009.2 |
| 20260505215407 | 51 | 324 | 2.0 | 5.0 | 0.00 | 0.29 | 0.29 | 53 | 1008.9 |
| 20260505214348 | 52 | 280 | 1.0 | 6.0 | 0.00 | 0.29 | 0.29 | 53 | 1008.9 |
| 20260505213408 | 52 | 278 | 4.0 | 10.0 | 0.00 | 0.29 | 0.29 | 50 | 1009.0 |
| 20260505210154 | 52 | 279 | 4.0 | 11.0 | 0.00 | 0.29 | 0.29 | 49 | 1008.8 |
| 20260505204059 | 53 | 285 | 5.0 | 12.0 | 0.00 | 0.29 | 0.29 | 47 | 1008.6 |
| 20260505203035 | 54 | 295 | 4.0 | 11.0 | 0.00 | 0.29 | 0.29 | 49 | 1008.5 |
| 20260505200925 | 54 | 270 | 8.0 | 15.0 | 0.00 | 0.29 | 0.29 | 48 | 1008.5 |
| 20260505195918 | 54 | 276 | 5.0 | 11.0 | 0.00 | 0.29 | 0.29 | 49 | 1008.4 |
| 20260505194929 | 54 | 278 | 4.0 | 13.0 | 0.00 | 0.29 | 0.29 | 48 | 1008.1 |
| 20260505193906 | 53 | 287 | 6.0 | 13.0 | 0.00 | 0.29 | 0.29 | 47 | 1008.1 |
| 20260505192911 | 54 | 295 | 5.0 | 10.0 | 0.00 | 0.29 | 0.29 | 48 | 1008.0 |
| 20260505191908 | 53 | 273 | 4.0 | 13.0 | 0.00 | 0.29 | 0.29 | 47 | 1008.1 |
| 20260505190914 | 53 | 261 | 7.0 | 15.0 | 0.00 | 0.29 | 0.29 | 48 | 1008.1 |
| 20260505184720 | 54 | 244 | 6.0 | 13.0 | 0.00 | 0.29 | 0.29 | 46 | 1007.7 |
| 20260505183705 | 53 | 244 | 4.0 | 12.0 | 0.00 | 0.29 | 0.29 | 49 | 1007.8 |
| 20260505182649 | 52 | 235 | 4.0 | 12.0 | 0.00 | 0.29 | 0.29 | 52 | 1007.7 |
| 20260505181620 | 51 | 273 | 4.0 | 12.0 | 0.00 | 0.29 | 0.29 | 52 | 1007.8 |
| 20260505180612 | 51 | 257 | 2.0 | 10.0 | 0.00 | 0.29 | 0.29 | 55 | 1007.6 |
| 20260505175614 | 50 | 273 | 4.0 | 12.0 | 0.00 | 0.29 | 0.29 | 55 | 1007.6 |
| 20260505174620 | 50 | 295 | 5.0 | 12.0 | 0.00 | 0.29 | 0.29 | 56 | 1007.5 |
| 20260505172545 | 48 | 235 | 5.0 | 12.0 | 0.00 | 0.29 | 0.29 | 59 | 1007.3 |
| 20260505170401 | 47 | 284 | 4.0 | 9.0 | 0.00 | 0.29 | 0.29 | 62 | 1007.4 |
| 20260505165415 | 47 | 280 | 3.0 | 11.0 | 0.00 | 0.29 | 0.29 | 64 | 1007.3 |
| 20260505164433 | 47 | 296 | 5.0 | 11.0 | 0.00 | 0.29 | 0.29 | 64 | 1007.3 |
| 20260505163424 | 47 | 286 | 4.0 | 10.0 | 0.00 | 0.29 | 0.29 | 64 | 1007.1 |
| 20260505162440 | 47 | 313 | 5.0 | 14.0 | 0.00 | 0.29 | 0.29 | 64 | 1006.9 |
| 20260505160318 | 47 | 284 | 6.0 | 13.0 | 0.00 | 0.29 | 0.29 | 61 | 1006.9 |
| 20260505153226 | 48 | 282 | 8.0 | 13.0 | 0.00 | 0.29 | 0.29 | 62 | 1006.2 |
| 20260505152217 | 48 | 284 | 6.0 | 13.0 | 0.00 | 0.29 | 0.29 | 63 | 1006.4 |
| 20260505124747 | 44 | 280 | 1.0 | 5.0 | 0.00 | 0.29 | 0.29 | 87 | 1004.1 |
| 20260505123800 | 44 | 280 | 1.0 | 4.0 | 0.00 | 0.29 | 0.29 | 88 | 1004.0 |
| 20260505122747 | 44 | 280 | 0.0 | 2.0 | 0.00 | 0.29 | 0.29 | 89 | 1003.6 |
| 20260505121733 | 44 | 280 | 0.0 | 1.0 | 0.00 | 0.29 | 0.29 | 89 | 1003.3 |
| 20260505120746 | 44 | 280 | 1.0 | 4.0 | 0.00 | 0.29 | 0.29 | 89 | 1003.4 |
| 20260505115725 | 44 | 280 | 1.0 | 4.0 | 0.00 | 0.29 | 0.29 | 89 | 1003.2 |
| 20260505113600 | 44 | 280 | 2.0 | 5.0 | 0.00 | 0.29 | 0.29 | 90 | 1002.8 |